Location: Dąbrowa Wronowska
(51.1605°N, 22.1145°E)
Time: 23:04:15
(UTC+01:00)

ISS - Visible Passes

Search period start: 23 January 2019 00:00
Search period end: 02 February 2019 00:00
Orbit: 404 x 410 km, 51.6° (Epoch: 24 January)

Date Brightness Start Highest point End Pass type
(mag) Time Alt. Az. Time Alt. Az. Time Alt. Az.
23 Jan -1.3 18:40:11 10° SSW 18:41:05 16° SSW 18:41:05 16° SSW visible
24 Jan -2.1 17:49:25 10° SSW 17:51:56 20° SE 17:52:03 20° SE visible
24 Jan -0.3 19:24:47 10° WSW 19:24:47 10° WSW 19:24:47 10° WSW visible
25 Jan -1.5 16:59:09 10° SSE 17:00:47 13° SE 17:02:26 10° ESE visible
25 Jan -2.4 18:33:32 10° SW 18:35:41 34° SSW 18:35:41 34° SSW visible
26 Jan -2.9 17:42:25 10° SW 17:45:28 35° SSE 17:46:30 28° ESE visible
26 Jan -0.7 19:18:31 10° W 19:19:14 15° W 19:19:14 15° W visible
27 Jan -2.2 16:51:30 10° SSW 16:54:13 24° SE 16:56:58 10° E visible
27 Jan -3.4 18:27:08 10° WSW 18:30:00 62° SW 18:30:00 62° SW visible
28 Jan -3.6 17:35:49 10° WSW 17:39:04 59° SSE 17:40:43 26° E visible
28 Jan -1.1 19:12:16 10° W 19:13:26 20° W 19:13:26 20° W visible
29 Jan -3.9 18:20:50 10° W 18:24:07 84° NNW 18:24:07 84° NNW visible
30 Jan -3.8 17:29:24 10° WSW 17:32:42 84° S 17:34:47 21° E visible
30 Jan -1.5 19:05:58 10° W 19:07:30 25° W 19:07:30 25° W visible
31 Jan -4.0 18:14:31 10° W 18:17:50 80° N 18:18:09 69° ENE visible
01 Feb -3.8 17:23:02 10° W 17:26:20 81° N 17:28:49 17° E visible
01 Feb -2.0 18:59:37 10° W 19:01:32 32° W 19:01:32 32° W visible
